Tracking 29511 objects as of 15-Sep-2024
HD Live streaming from Space Station
objects crossing your sky now

FENGYUN 1C DEB

Track FENGYUN 1C DEB now!
10-day predictions


NORAD ID: 30680
Int'l Code: 1999-025AQN
Perigee: 826.2 km
Apogee: 1,328.6 km
Inclination: 99.6 °
Period: 106.6 minutes
Semi major axis: 7448 km
RCS: 0.0144 m2 (small)
Launch date: May 10, 1999
Source: People's Republic of China (PRC)
Launch site: Taiyaun Space Center, China (TSC)

Note: This is SATELLITE DEBRIS
Your satellite tracking list
Your tracking list is empty




NASA's NSSDC Master Catalog

Two Line Element Set (TLE):
1 30680U 99025AQN 24258.84888183  .00009180  00000-0  10080-1 0  9999
2 30680  99.5918 307.7426 0337221 227.5091 129.7096 13.50538586861792
Source of the keplerian elements: AFSPC